Orbital Elements at Epoch 2459200.5 (2020-Dec-17.0) TDB
Reference: JPL 29 (heliocentric ecliptic J2000)
Element | Value | Uncertainty (1-sigma) | Units |
e | .1345464944775302 | 3.4836e-08 | |
a | 3.061443195468037 | 1.7452e-08 | au |
q | 2.649536745475724 | 1.08e-07 | au |
i | 11.98365531533647 | 3.8766e-06 | deg |
node | 175.5205281648555 | 1.7774e-05 | deg |
peri | 184.496680955294 | 2.2707e-05 | deg |
M | 251.1590440407775 | 1.6169e-05 | deg |
tp | 2459792.031099012293 (2022-Jul-31.53109901) | 9.0122e-05 | TDB |
period | 1956.5355133798 5.36 | 1.673e-05 4.58e-08 | d yr |
n | .1839987046174905 | 1.5733e-09 | deg/d |
Q | 3.473349645460349 | 1.98e-08 | au |
|
| | Orbit Determination Parameters
Additional Information
|